Weather Roundup
Issued by NWS Chicago, IL

Home | Current Version | Previous Version | Graphics & Text | Print | Product List | Glossary On
Versions: 1 2 3 4 5 6 7 8 9 10 11 12 13 14 15 16 17 18 19 20 21 22 23 24 25 26 27 28 29 30 31 32 33 34 35 36 37 38 39 40 41 42 43 44 45 46 47 48 49 50
000
NZUS59 KLOT 021500
HRRLOT

CHICAGO AREA WEATHER ROUNDUP
NATIONAL WEATHER SERVICE CHICAGO/ROMEOVILLE IL
1000 AM CDT WED SEP 02 2015

NOTE: "FAIR" INDICATES FEW OR NO CLOUDS BELOW 12,000 FEET WITH NO
SIGNIFICANT WEATHER AND/OR OBSTRUCTIONS TO VISIBILITY.

* THESE STATIONS ARE NOT UNDER NWS QUALITY CONTROL. THEY ALSO MAY NOT
  REPORT WEATHER SUCH AS PRECIPITATION OR FOG.

ILZ005-006-012>014-019>023-021600-
NORTHEAST ILLINOIS

CITY           SKY/WX    TMP DP  RH WIND       PRES   REMARKS
OHARE          MOSUNNY   80  69  69 SW7       30.06F HX  83
MIDWAY         MOSUNNY   81  70  69 SW7       30.06F HX  84
AURORA         SUNNY     80  71  74 SW7       30.08S HAZE    HX  84
WAUKEGAN       NOT AVBL
DUPAGE AIRPORT SUNNY     80  70  71 SW10      30.06F HX  83
WHEELING       SUNNY     82  68  62 SW7       30.07S HX  85
NORTHERLY IS     N/A     80  68  66 SW3         N/A  HX  83
$$

WIZ051-052-058>065-066-070>072-021600-
SOUTHEAST WISCONSIN

CITY           SKY/WX    TMP DP  RH WIND       PRES   REMARKS
MILWAUKEE      MOSUNNY   82  69  64 W7        30.03S HX  85
KENOSHA*       SUNNY     81  71  71 W7        30.05S HX  85
RACINE*        SUNNY     82  70  66 W7        30.05F HX  86
WAUKESHA       SUNNY     79  70  73 SW6       30.05S HX  81
$$

INZ001>003-010>013-019-020-021600-
NORTHWEST INDIANA

CITY           SKY/WX    TMP DP  RH WIND       PRES   REMARKS
GARY*          SUNNY     81  68  65 W7        30.08F HX  83
MICHIGAN CITY* NOT AVBL
RENSSELAER*    NOT AVBL
$$

LMZ740>746-021600-
SOUTHERN LAKE MICHIGAN

STATION/POSITION TIME  SKY/WX   TEMP WIND        PRES    VSBY
                                AIR  DIR/SP/G
                 (UTC)          (F)  (DEG/KT/KT) (MB)    (MI)
HARRISON CRIB    1400            76  220/  8/ 10   N/A
BURNHAM HARBOR   1400            78  190/  4/  8   N/A
CALUMET HARBOR   1400            78  230/  5/  8   N/A
BURNS HARBOR     1400            76  230/  8/ 10 1019.0S
MICHIGAN CITY    1400            75  200/  8/  9   N/A
$$

ABBREVIATIONS USED IN REMARKS
   TC - TEMPERATURE IN CELSIUS
  WCI - WIND CHILL INDEX
   HX - HEAT INDEX
  VSB - VISIBILITY
$$


USA.gov is the U.S. government's official web portal to all federal, state and local government web resources and services.